Miscellaneous Local Product
Issued by NWS Hastings, NE

Home | Current Version | Previous Version | Text Only | Print | Product List | Glossary On
Versions: 1 2 3 4 5 6 7 8 9 10 11 12 13 14 15 16 17 18 19 20 21 22 23 24 25 26 27 28 29 30 31 32 33 34 35 36 37 38 39 40 41 42 43 44 45 46 47 48 49 50
682
AXUS43 KGID 191102
MISGRI

GID CWA HOURLY WEATHER ROUNDUP
NATIONAL WEATHER SERVICE HASTINGS NE
500 AM CST SUN NOV 19 2017

NOTE: "FAIR" INDICATES FEW OR NO CLOUDS BELOW 12,000 FEET WITH NO
SIGNIFICANT WEATHER AND/OR OBSTRUCTIONS TO VISIBILITY.

...SOUTH CENTRAL NEBRASKA...

CITY           SKY/WX    TMP DP  RH WIND       PRES   REMARKS
GRAND ISLAND   CLEAR     27  23  85 W6        30.19F WCI  20
KEARNEY        CLEAR     26  21  81 SW3       30.20F
HASTINGS       CLEAR     28  19  69 SW6       30.20F WCI  22
ORD            CLEAR     20  18  92 CALM      30.16F
YORK           CLEAR     25  25 100 CALM      30.20F
AURORA         CLEAR     25  22  88 CALM      30.19F
LEXINGTON      CLEAR     24  19  81 W6        30.20F WCI  17
HOLDREGE       CLEAR     26  20  80 W5        30.20F WCI  20
HEBRON         CLEAR     23  21  91 CALM      30.24R

...NEBRASKA PANHANDLE...

CITY           SKY/WX    TMP DP  RH WIND       PRES   REMARKS
CHADRON        CLEAR     21  16  81 SW3       30.10F
ALLIANCE       CLOUDY    13  11  92 W7        30.12F WCI   3
SCOTTSBLUFF    CLOUDY    19  12  74 E5        30.15F WCI  12
SIDNEY         CLOUDY    17  13  84 W8        30.17F WCI   7

...WESTERN AND NORTH CENTRAL NEBRASKA...

CITY           SKY/WX    TMP DP  RH WIND       PRES   REMARKS
VALENTINE      CLEAR     25  19  78 W9        30.10F WCI  15
AINSWORTH      CLEAR     26  21  82 SW8       30.11F WCI  17
ONEILL         CLOUDY    21  20  94 SW6       30.12F WCI  13
BROKEN BOW     CLEAR     27  19  72 CALM      30.16F
IMPERIAL       CLOUDY    20  14  77 SW3       30.20F
NORTH PLATTE   CLOUDY    18  15  88 W6        30.19F WCI  10
MCCOOK         CLEAR     23  20  88 W5        30.22F WCI  17

...EASTERN NEBRASKA...

CITY           SKY/WX    TMP DP  RH WIND       PRES   REMARKS
NORFOLK        CLEAR     19  17  92 CALM      30.16F
SO SIOUX CITY  CLEAR     18  15  88 S3        30.17F
TEKAMAH        CLEAR     22  17  81 CALM      30.19F
ALBION         CLEAR     20  17  91 CALM      30.17F
OMAHA EPPLEY   CLEAR     26  19  74 CALM      30.21F
OFFUTT AFB     CLEAR     22  19  85 S3        30.20F
MILLARD        CLEAR     27  22  81 CALM      30.21F
LINCOLN        CLEAR     27  22  81 CALM      30.23F
NEBRASKA CITY  CLEAR     27  22  81 W6        30.22F WCI  21
BEATRICE       CLEAR     22  19  87 CALM      30.24F
FALLS CITY     CLEAR     27  22  81 W5        30.25R WCI  22

...NORTHERN KANSAS...

CITY           SKY/WX    TMP DP  RH WIND       PRES   REMARKS
GOODLAND       CLOUDY    22  13  68 SW8       30.20F WCI  12
HILL CITY      CLEAR     25  19  78 W6        30.24F WCI  18
NORTON         SUNNY     19  14  79 SW7       30.22S WCI  10
PHILLIPSBURG   CLEAR     23  18  80 W7        30.24S WCI  15
SMITH CENTER   CLEAR     18  16  93 CALM      30.25F
HAYS           CLEAR     26  19  74 W5        30.26S WCI  20
RUSSELL        CLEAR     24  21  88 SW8       30.25S WCI  15
CONCORDIA      PTCLDY    30  23  75 W7        30.24S WCI  23
SALINA         PTCLDY    26  22  84 CALM      30.27S
TOPEKA         PTCLDY    29  26  89 SW3       30.27R



USA.gov is the U.S. government's official web portal to all federal, state and local government web resources and services.